This demonstration page uses our WeatherBlox Daily Observations layout. Learn more.

Left ArrowRight Arrow

39.92423, -83.80882

Hourly Observations for January 1, 2022

Temp ( °F °C ) Dew Point ( °F °C ) Humidity (%) Winds ( mph kmh ) Pressure ( in mb ) Visibility ( mi km ) Precip ( " mm )
12:40 am 00:40 Cloudy 59 15 N/A N/A SW 9 15 29.69 1005 9 14 0.00 0.00
12:48 am 00:48 Cloudy with Light Rain 59 15 N/A N/A SW 8 13 29.69 1005 8 13 0.00 0.00
12:56 am 00:56 Cloudy with Rain 59 15 N/A N/A SSW 12 19 29.70 1006 7 11 0.00 0.00
1:39 am 01:39 Cloudy with Light Rain 59 15 N/A N/A SSW 9 15 29.68 1005 5 8 0.00 0.00
1:56 am 01:56 Cloudy with Light Rain 59 15 N/A N/A WSW 8 13 29.70 1006 5 8 0.00 0.00
2:16 am 02:16 Cloudy with Light Rain 55 13 55 13 100 100 WNW 9 15 29.70 1006 10 16 0.00 0.00
2:46 am 02:46 Cloudy with Light Rain 55 13 N/A N/A Calm 29.71 1006 10 16 0.00 0.00
2:56 am 02:56 Cloudy with Light Rain 55 13 N/A N/A Calm 29.71 1006 10 16 0.00 0.00
3:25 am 03:25 Cloudy with Light Rain 55 13 N/A N/A S 5 7 29.69 1005 8 13 0.00 0.00
3:56 am 03:56 Cloudy with Light Rain 57 14 N/A N/A SW 8 13 29.70 1006 8 13 0.00 0.00
4:56 am 04:56 Cloudy with Light Rain 57 14 N/A N/A SW 9 15 29.68 1005 8 13 0.00 0.00
5:56 am 05:56 Cloudy with Light Rain 57 14 N/A N/A SW 9 15 29.70 1006 7 11 0.00 0.00
6:22 am 06:22 Cloudy with Light Rain 57 14 N/A N/A SW 13 20 29.71 1006 8 13 0.00 0.00
6:48 am 06:48 Cloudy with Light Rain 57 14 N/A N/A SW 10 17 29.70 1006 9 14 0.00 0.00
6:56 am 06:56 Cloudy with Light Rain 57 14 N/A N/A SSW 12 19 29.69 1005 9 14 0.00 0.00
7:56 am 07:56 Cloudy with Light Rain 55 13 N/A N/A SW 8 13 29.70 1006 10 16 0.00 0.00
8:20 am 08:20 Cloudy with Light Rain 55 13 N/A N/A SW 8 13 29.70 1006 7 11 0.00 0.00
8:56 am 08:56 Cloudy with Light Rain 55 13 N/A N/A SSW 7 11 29.70 1006 6 10 0.00 0.00
9:35 am 09:35 Cloudy with Rain 55 13 N/A N/A S 7 11 29.71 1006 4 6 0.00 0.00
9:56 am 09:56 Cloudy with Rain 55 13 N/A N/A S 5 7 29.70 1006 6 10 0.00 0.00
10:08 am 10:08 Cloudy with Light Rain 55 13 N/A N/A WSW 6 9 29.70 1006 6 10 0.00 0.00
10:56 am 10:56 Cloudy with Light Rain 55 13 N/A N/A S 5 7 29.70 1006 6 10 0.00 0.00
11:07 am 11:07 Cloudy with Light Rain 55 13 N/A N/A S 5 7 29.70 1006 6 10 0.00 0.00
11:31 am 11:31 Cloudy with Light Rain 55 13 N/A N/A SSE 5 7 29.67 1005 5 8 0.00 0.00
11:56 am 11:56 Cloudy with Rain 55 13 N/A N/A undefined N/A 29.67 1005 5 8 0.00 0.00
12:12 pm 12:12 Cloudy with Light Rain 55 13 N/A N/A WSW 6 9 29.68 1005 5 8 0.00 0.00
12:30 pm 12:30 Cloudy with Light Rain 55 13 N/A N/A W 7 11 29.66 1004 8 13 0.00 0.00
12:47 pm 12:47 Cloudy with Light Rain 55 13 N/A N/A WNW 7 11 29.66 1004 7 11 0.00 0.00
12:56 pm 12:56 Cloudy with Light Rain 55 13 N/A N/A NW 6 9 29.65 1004 7 11 0.00 0.00
1:53 pm 13:53 Cloudy with Rain 54 12 N/A N/A N 9 15 29.65 1004 8 13 0.00 0.00
1:56 pm 13:56 Cloudy with Rain 54 12 N/A N/A N 8 13 29.65 1004 9 14 0.00 0.00
2:14 pm 14:14 Cloudy with Rain 52 11 N/A N/A NNE 8 13 29.66 1004 7 11 0.00 0.00
2:23 pm 14:23 Cloudy with Rain 52 11 N/A N/A NNE 8 13 29.65 1004 6 10 0.00 0.00
2:56 pm 14:56 Cloudy with Rain 52 11 N/A N/A NNE 6 9 29.64 1004 6 10 0.00 0.00
3:56 pm 15:56 Cloudy with Light Rain 52 11 N/A N/A NNE 7 11 29.65 1004 5 8 0.00 0.00
4:03 pm 16:03 Cloudy with Light Rain 52 11 N/A N/A NNE 3 6 29.65 1004 6 10 0.00 0.00
4:21 pm 16:21 Cloudy with Light Rain 52 11 N/A N/A NE 7 11 29.65 1004 7 11 0.00 0.00
4:34 pm 16:34 Cloudy with Light Rain 52 11 N/A N/A ENE 7 11 29.63 1003 10 16 0.00 0.00
4:43 pm 16:43 Cloudy with Light Rain 52 11 N/A N/A ENE 6 9 29.64 1004 10 16 0.00 0.00
4:56 pm 16:56 Cloudy 52 11 N/A N/A ENE 6 9 29.63 1004 10 16 0.00 0.00
5:56 pm 17:56 Cloudy 46 8 N/A N/A NE 10 17 29.65 1004 10 16 0.00 0.00
6:45 pm 18:45 Cloudy with Light Rain 45 7 N/A N/A NNE 8 13 29.68 1005 10 16 0.00 0.00
6:56 pm 18:56 Cloudy with Light Rain 43 6 N/A N/A NE 10 17 29.66 1004 10 16 0.00 0.00
7:56 pm 19:56 Cloudy 43 6 N/A N/A NNE 12 19 29.66 1004 7 11 0.00 0.00
8:56 pm 20:56 Cloudy with Light Rain 39 4 N/A N/A NE 13 20 29.70 1006 4 6 0.00 0.00
9:56 pm 21:56 Cloudy 39 4 N/A N/A NE 14 22 29.68 1005 7 11 0.00 0.00
10:56 pm 22:56 Cloudy 39 4 N/A N/A ENE 10 17 29.65 1004 10 16 0.00 0.00
11:56 pm 23:56 Cloudy 37 3 N/A N/A N 8 13 29.67 1005 10 16 0.00 0.00

Powered by AerisWeather